Change the Weather History Date:

Thursday, July 18, 2013

  Actual Average Record
Temperature  
Mean Temperature 83 °F -  
Max Temperature 95 °F 92 °F 106 °F (1954)
Min Temperature 73 °F 72 °F 60 °F (1933)
Cooling Degree Days 18    
Growing Degree Days 33 (Base 50)    
Moisture  
Dew Point 73 °F    
Average Humidity 76    
Maximum Humidity 93    
Minimum Humidity 49    
Precipitation  
Precipitation 0.03 in - - ()
Sea Level Pressure  
Sea Level Pressure 30.12 in    
Wind  
Wind Speed 3 mph (East)    
Max Wind Speed 10 mph    
Max Gust Speed -    
Visibility 10 miles    
Events Rain    
Averages and records for this station are not official NWS values.
T = Trace of Precipitation, MM = Missing Value Source: NWS Daily Summary

Daily Weather History Graph

Daily Weather History Graph

Search for Another Location

Airport or City:

Trip Planner

Search our weather history database for the weather conditions in past years. The results will help you decide how hot, cold, wet, or windy it might be!

Date:

Astronomy

Jul. 18, 2013 Rise Set
Actual Time 5:56 AM CDT 8:14 PM CDT
Civil Twilight 5:27 AM CDT 8:43 PM CDT
Nautical Twilight 4:51 AM CDT 9:19 PM CDT
Astronomical Twilight 4:12 AM CDT 9:58 PM CDT
Moon 4:12 PM CDT (7/18) 1:45 AM CDT (7/18)
Length of Visible Light 15h 16m
Length of Day
14h 17m
Waxing Gibbous, 77% of the Moon is Illuminated
Jul 18
Waxing Gibbous
Jul 22
Full
Jul 29
Last Quarter
Aug 6
New
Aug 14
First Quarter

Hourly Weather History & Observations

Time (CDT) Temp. Heat Index Dew Point Humidity Pressure Visibility Wind Dir Wind Speed Gust Speed Precip Events Conditions
12:53 AM 81.0 °F 86.7 °F 75.0 °F 82% 30.19 in 10.0 mi Calm Calm - N/A   Clear
1:53 AM 79.0 °F - 75.0 °F 88% 30.17 in 10.0 mi Calm Calm - N/A   Clear
2:53 AM 78.1 °F - 75.0 °F 90% 30.15 in 10.0 mi Calm Calm - N/A   Clear
3:53 AM 77.0 °F - 73.9 °F 90% 30.16 in 10.0 mi NNW 3.5 mph - N/A   Clear
4:53 AM 77.0 °F - 73.9 °F 90% 30.15 in 10.0 mi Calm Calm - N/A   Clear
5:53 AM 77.0 °F - 73.9 °F 90% 30.15 in 10.0 mi Calm Calm - N/A   Clear
6:53 AM 79.0 °F - 75.0 °F 88% 30.15 in 10.0 mi Calm Calm - N/A   Clear
7:53 AM 84.0 °F 92.6 °F 75.9 °F 76% 30.17 in 10.0 mi Calm Calm - N/A   Clear
8:53 AM 87.1 °F 95.4 °F 73.9 °F 65% 30.17 in 10.0 mi ENE 5.8 mph - N/A   Clear
9:53 AM 87.1 °F 96.3 °F 75.0 °F 67% 30.17 in 10.0 mi East 5.8 mph - N/A   Clear
10:53 AM 89.1 °F 99.1 °F 75.0 °F 63% 30.17 in 10.0 mi East 5.8 mph - N/A   Clear
11:53 AM 91.0 °F 100.4 °F 73.9 °F 57% 30.15 in 10.0 mi ENE 4.6 mph - N/A   Clear
12:53 PM 91.0 °F 100.4 °F 73.9 °F 57% 30.11 in 10.0 mi East 8.1 mph - N/A   Clear
1:53 PM 93.9 °F 102.1 °F 72.0 °F 49% 30.09 in 10.0 mi East 8.1 mph - N/A   Clear
2:53 PM 91.9 °F 100.7 °F 73.0 °F 54% 30.06 in 10.0 mi ENE 9.2 mph - N/A   Clear
3:53 PM 91.9 °F 100.7 °F 73.0 °F 54% 30.04 in 10.0 mi East 10.4 mph - N/A   Clear
4:53 PM 86.0 °F 90.1 °F 69.1 °F 57% 30.07 in 10.0 mi East 10.4 mph - N/A   Clear
5:53 PM 80.1 °F 83.2 °F 70.0 °F 71% 30.09 in 10.0 mi South 9.2 mph - 0.00 in Rain Light Rain
6:53 PM 75.9 °F - 71.1 °F 85% 30.09 in 10.0 mi SW 8.1 mph - 0.03 in   Mostly Cloudy
7:53 PM 75.0 °F - 71.1 °F 87% 30.07 in 10.0 mi WSW 4.6 mph - N/A   Clear
8:53 PM 73.9 °F - 70.0 °F 87% 30.06 in 10.0 mi Calm Calm - N/A   Clear
9:53 PM 75.0 °F - 71.1 °F 87% 30.07 in 10.0 mi South 3.5 mph - N/A   Partly Cloudy
10:53 PM 73.9 °F - 71.1 °F 91% 30.07 in 10.0 mi Calm Calm - N/A   Clear
11:53 PM 73.9 °F - 72.0 °F 93% 30.06 in 10.0 mi Calm Calm - N/A   Clear